Location: Brede
(50.9167°N, 0.6000°E)
Time: 17:06:39
(UTC+00:00)

Cosmos 158 Rocket - Pass Details

Date: 08 August 2020
Orbit: 698 x 794 km, 74.0° (Epoch: 23 September)

Event Time Altitude Azimuth Distance (km) Brightness Sun altitude
Rises 02:03:22 0° 334° (NNW) 3,271 7.8 -18.1°
Reaches altitude 10° 02:05:45 10° 334° (NNW) 2,350 6.9 -17.9°
Maximum altitude 02:11:07 83° 247° (WSW) 804 4.0 -17.4°
Enters shadow 02:16:05 12° 161° (SSE) 2,200 6.0 -17.0°
